Regional Weather Roundup
Issued by NWS

Home | Current Version | Previous Version | Graphics & Text | Print | Product List | Glossary On
Versions: 1 2 3 4 5 6 7 8 9 10 11 12 13 14 15 16 17 18 19 20 21 22 23 24 25 26 27 28 29 30 31 32 33 34 35 36 37 38 39 40 41 42 43 44 45 46 47 48 49 50
370
ASUS43 KDMX 270503
RWRIA

WEATHER ROUNDUP FOR IOWA
NATIONAL WEATHER SERVICE DES MOINES IA
1200 AM CDT WED JUL 27 2016

NOTE: "FAIR" INDICATES FEW OR NO CLOUDS BELOW 12,000 FEET WITH NO
SIGNIFICANT WEATHER AND/OR OBSTRUCTIONS TO VISIBILITY.

* - THESE STATIONS ARE NOT NWS STATIONS...THUS NOT UNDER NWS
QUALITY CONTROL.  THEY ALSO DO NOT REPORT WEATHER SUCH
AS PRECIPITATION OR FOG.

IAZ001>003-012>014-020>022-031>034-043>046-270600-
   NORTHWEST IOWA

CITY           SKY/WX    TMP DP  RH WIND       PRES   REMARKS
CARROLL *      PTCLDY    66  66 100 CALM      30.03F
CHEROKEE *     MOCLDY    69  67  93 S3        30.02S
DENISON *      PTCLDY    68  66  94 SE5       30.01S
LE MARS *      PTCLDY    72  68  88 SE7       30.00F
SHELDON *      PTCLDY    72  68  88 S9        29.99F
SIOUX CITY     MOCLDY    73  67  81 S8        29.99F
SPENCER        CLOUDY    68  65  90 S6        30.02F
STORM LAKE *   CLEAR     68  66  94 S8        30.04F
$$

IAZ055>058-069>071-079>083-090>094-270600-
   SOUTHWEST IOWA

CITY           SKY/WX    TMP DP  RH WIND       PRES   REMARKS
ATLANTIC *     PTCLDY    68  64  88 CALM      30.03S
CLARINDA *       N/A     66  66 100 MISG      30.04S
COUNCIL BLFS *   N/A     72  68  88 SE3       30.02F
CRESTON *      CLEAR     68  66  94 E5        30.04S
HARLAN  *      PTCLDY    66  66 100 CALM      30.06S
LAMONI         CLEAR     71  65  81 SE3       30.02F
RED OAK *      CLEAR     68  66  94 CALM      30.02F
SHENANDOAH *   CLEAR     70  70 100 CALM      30.02S
$$

IAZ047>049-059>061-072>074-084-270600-
   CENTRAL IOWA

CITY           SKY/WX    TMP DP  RH WIND       PRES   REMARKS
AMES           CLEAR     66  66 100 CALM      30.03R
ANKENY *         N/A    N/A N/A N/A MISG        N/A
BOONE *        CLEAR     68  64  88 CALM      30.04R
CHARITON *       N/A    N/A N/A N/A MISG        N/A
DES MOINES     CLEAR     76  65  68 CALM      30.02S
GRINNELL*      CLEAR     66  64  93 CALM      30.04S
KNOXVILLE *    CLEAR     72  66  83 CALM      30.01F
MARSHALLTOWN   CLEAR     67  65  93 CALM      30.02F
NEWTON *       CLEAR     68  66  94 SE3       30.01F
PELLA *        CLEAR     67  65  93 CALM      30.03S
PERRY *          N/A     66  65  97 CALM      30.04R
$$

IAZ004>006-015-016-023>025-035-036-270600-
   NORTH CENTRAL IOWA

CITY           SKY/WX    TMP DP  RH WIND       PRES   REMARKS
ALGONA *       CLOUDY    72  68  88 S6        30.03S
ESTHERVILLE    CLEAR     68  67  96 S6        30.02S
FORT DODGE *   CLOUDY    72  66  83 S3        30.04F
MASON CITY     CLOUDY    67  65  93 S6        30.04F
FOREST CITY *    N/A     68  68 100 S7        30.03F
IOWA FALLS *     N/A     68  65  89 SW5       30.05S
$$

IAZ007>011-017>019-026>030-037>042-050>054-066-270600-
   NORTHEAST IOWA

CITY           SKY/WX    TMP DP  RH WIND       PRES   REMARKS
CEDAR RAPIDS   CLEAR     68  68 100 CALM      30.02R
CHARLES CITY * CLEAR     68  68 100 CALM      30.04S
CLINTON *      CLEAR     69  66  90 CALM      30.02F
DECORAH *      MOCLDY    70  68  94 CALM      30.03S
DUBUQUE        CLEAR     68  65  90 CALM      30.04S
MONTICELLO *   CLEAR     68  66  94 CALM      30.02S
OELWEIN *      CLEAR     68  66  94 CALM      30.04S
WATERLOO       CLEAR     68  65  90 CALM      30.02R
$$

IAZ064-065-067-068-078-270600-
   EAST CENTRAL IOWA

CITY           SKY/WX    TMP DP  RH WIND       PRES   REMARKS
DAVENPORT      CLEAR     67  64  90 CALM      30.03S
IOWA CITY      CLEAR     71  67  87 CALM      30.02S
MT. PLEASANT * CLEAR     71  70  97 NE5       30.01S
MUSCATINE *    CLEAR     70  66  88 CALM      30.01F
QUAD CITIES    CLEAR     70  66  87 CALM      30.01S
$$

IAZ062-063-075>077-085>089-095>099-270600-
   SOUTHEAST IOWA

CITY           SKY/WX    TMP DP  RH WIND       PRES   REMARKS
BURLINGTON     CLEAR     75  69  81 E5        30.01S
FAIRFIELD *    CLEAR     70  66  88 CALM      30.01S
KEOKUK *       CLEAR     72  68  88 CALM      30.00S
CENTERVILLE *    N/A     64  63  94 CALM      30.04S
OTTUMWA        CLEAR     67  64  90 W5        30.03R
WASHINGTON *   CLEAR     70  68  94 NE5       30.03S
$$

ABBREVIATIONS USED IN REMARKS
   TC - TEMPERATURES IN CELSIUS
  WCI - WIND CHILL INDEX
   HX - HEAT INDEX
  VSB - VISIBILITY
$$





USA.gov is the U.S. government's official web portal to all federal, state and local government web resources and services.